QPF
0.01 0.02 0.02 0.02 0.02 0.02 0.03 0.02 0.02 0.02 0.01 0.01 0.02 0.04 0.07 0.06 0.02 0.03 0.01 0.01 0.00 0.00 0.00 0.00 0.00 0.00 0.00 0.00 0.00 0.00 0.00 0.00 0.00 0.00 0.00 0.00 0.00 0.00 0.00 0.00 0.00 0.00
0.01 0.01 0.02 0.02 0.02 0.02 0.02 0.02 0.01 0.01 0.01 0.01 0.01 0.00 0.00 0.01 0.01 0.01 0.01 0.00 0.00 0.00 0.00 0.01 0.00 0.00 0.00 0.00 0.00 0.00 0.00 0.00 0.00 0.00 0.00 0.00 0.00 0.00 0.00 0.00 0.00 0.00
0.01 0.01 0.02 0.02 0.02 0.02 0.01 0.02 0.02 0.01 0.01 0.00 0.00 0.00 0.00 0.00 0.00 0.00 0.00 0.00 0.00 0.01 0.00 0.00 0.00 0.00 0.00 0.00 0.00 0.00 0.00 0.00 0.00 0.00 0.00 0.00 0.00 0.00 0.00 0.00 0.00 0.00
0.01 0.01 0.01 0.01 0.01 0.01 0.01 0.01 0.00 0.00 0.00 0.00 0.00 0.00 0.00 0.00 0.00 0.00 0.00 0.00 0.00 0.00 0.00 0.00 0.00 0.00 0.00 0.00 0.00 0.00 0.00 0.00 0.00 0.00 0.00 0.00 0.00 0.00 0.00 0.00 0.00 0.00
0.01 0.01 0.01 0.01 0.00 0.01 0.00 0.00 0.00 0.00 0.00 0.00 0.00 0.00 0.00 0.00 0.00 0.01 0.01 0.00 0.00 0.00 0.00 0.00 0.00 0.00 0.00 0.00 0.00 0.00 0.00 0.00 0.00 0.00 0.00 0.00 0.00 0.00 0.00 0.00 0.00 0.00
0.00 0.00 0.00 0.00 0.00 0.00 0.00 0.00 0.00 0.00 0.00 0.01 0.00 0.00 0.00 0.00 0.00 0.00 0.00 0.00 0.00 0.00 0.00 0.00 0.00 0.00 0.00 0.00 0.00 0.00 0.00 0.00 0.00 0.00 0.00 0.00 0.00 0.00 0.00 0.00 0.00 0.00
0.00 0.00 0.00 0.00 0.00 0.00 0.00 0.00 0.00 0.00 0.00 0.00 0.00 0.00 0.00 0.00 0.00 0.00 0.00 0.00 0.00 0.00 0.00 0.00 0.00 0.00 0.00 0.00 0.00 0.00 0.00 0.00 0.00 0.00 0.00 0.00 0.00 0.00 0.00 0.00 0.00 0.00
0.00 0.00 0.00 0.00 0.00 0.00 0.00 0.00 0.00 0.00 0.00 0.00 0.00 0.00 0.00 0.00 0.00 0.01 0.00 0.00 0.01 0.00 0.00 0.00 0.00 0.00 0.00 0.00 0.00 0.00 0.00 0.00 0.00 0.00 0.00 0.00 0.00 0.00 0.00 0.00 0.00 0.00
0.00 0.00 0.00 0.00 0.00 0.00 0.00 0.00 0.00 0.00 0.00 0.00 0.00 0.00 0.00 0.00 0.00 0.01 0.00 0.00 0.01 0.00 0.00 0.00 0.00 0.00 0.00 0.00 0.00 0.00 0.00 0.00 0.00 0.00 0.00 0.00 0.00 0.00 0.00 0.00 0.00 0.00
0.00 0.00 0.00 0.00 0.00 0.00 0.00 0.00 0.00 0.00 0.00 0.00 0.00 0.00 0.00 0.00 0.00 0.01 0.01 0.00 0.01 0.00 0.00 0.00 0.00 0.00 0.00 0.00 0.00 0.00 0.00 0.00 0.00 0.00 0.00 0.00 0.00 0.00 0.00 0.00 0.00 0.00
0.00 0.00 0.00 0.00 0.00 0.00 0.00 0.00 0.00 0.00 0.00 0.00 0.00 0.00 0.00 0.01 0.00 0.00 0.01 0.01 0.02 0.01 0.00 0.00 0.00 0.00 0.00 0.00 0.00 0.00 0.00 0.00 0.00 0.00 0.00 0.00 0.00 0.00 0.00 0.00 0.00 0.00
0.00 0.00 0.00 0.00 0.00 0.00 0.00 0.00 0.00 0.00 0.00 0.00 0.00 0.00 0.00 0.00 0.00 0.01 0.01 0.01 0.01 0.00 0.00 0.00 0.00 0.00 0.00 0.00 0.00 0.00 0.00 0.00 0.00 0.00 0.00 0.00 0.00 0.00 0.00 0.00 0.00 0.00
0.00 0.00 0.00 0.00 0.00 0.00 0.00 0.00 0.00 0.00 0.00 0.00 0.00 0.00 0.00 0.01 0.01 0.01 0.02 0.01 0.00 0.00 0.00 0.00 0.00 0.00 0.00 0.00 0.00 0.00 0.00 0.00 0.00 0.00 0.00 0.00 0.00 0.00 0.00 0.00 0.00 0.00
0.00 0.00 0.00 0.00 0.00 0.00 0.00 0.00 0.00 0.00 0.00 0.00 0.00 0.00 0.01 0.02 0.01 0.00 0.01 0.01 0.01 0.00 0.00 0.00 0.00 0.00 0.00 0.00 0.00 0.00 0.00 0.00 0.00 0.00 0.00 0.00 0.00 0.00 0.00 0.00 0.00 0.00
0.00 0.00 0.00 0.00 0.00 0.00 0.00 0.00 0.00 0.01 0.00 0.00 0.00 0.01 0.01 0.01 0.01 0.00 0.00 0.00 0.00 0.00 0.00 0.00 0.00 0.00 0.00 0.00 0.00 0.00 0.00 0.00 0.00 0.00 0.00 0.00 0.00 0.00 0.00 0.00 0.00 0.00
0.00 0.00 0.00 0.00 0.00 0.00 0.00 0.00 0.01 0.01 0.01 0.01 0.00 0.01 0.01 0.01 0.02 0.01 0.01 0.00 0.00 0.00 0.00 0.00 0.00 0.00 0.00 0.00 0.00 0.00 0.00 0.00 0.00 0.00 0.00 0.00 0.00 0.00 0.00 0.00 0.00 0.00
0.00 0.00 0.00 0.00 0.01 0.00 0.01 0.00 0.00 0.00 0.01 0.00 0.01 0.01 0.01 0.00 0.03 0.02 0.00 0.00 0.00 0.00 0.00 0.00 0.00 0.00 0.00 0.00 0.00 0.00 0.00 0.00 0.00 0.00 0.00 0.00 0.00 0.00 0.00 0.00 0.00 0.00
0.00 0.00 0.00 0.01 0.01 0.01 0.00 0.00 0.01 0.01 0.01 0.01 0.00 0.02 0.02 0.01 0.01 0.01 0.00 0.00 0.00 0.00 0.00 0.00 0.00 0.00 0.00 0.00 0.00 0.00 0.00 0.00 0.00 0.00 0.00 0.00 0.00 0.00 0.00 0.00 0.00 0.00
0.00 0.00 0.00 0.01 0.01 0.01 0.01 0.01 0.01 0.01 0.01 0.01 0.01 0.01 0.00 0.00 0.00 0.01 0.01 0.00 0.00 0.00 0.00 0.00 0.00 0.00 0.00 0.00 0.00 0.00 0.00 0.00 0.00 0.00 0.00 0.00 0.00 0.00 0.00 0.00 0.00 0.00
0.01 0.01 0.01 0.01 0.01 0.03 0.02 0.02 0.01 0.01 0.01 0.01 0.01 0.00 0.00 0.00 0.00 0.00 0.00 0.00 0.00 0.00 0.00 0.00 0.00 0.00 0.00 0.00 0.00 0.00 0.00 0.00 0.00 0.00 0.00 0.00 0.00 0.00 0.00 0.00 0.00 0.00
0.01 0.00 0.01 0.01 0.02 0.01 0.01 0.01 0.01 0.01 0.01 0.01 0.01 0.00 0.00 0.00 0.00 0.00 0.00 0.00 0.00 0.00 0.00 0.00 0.00 0.00 0.00 0.00 0.00 0.00 0.00 0.00 0.00 0.00 0.00 0.00 0.00 0.00 0.00 0.00 0.00 0.00
0.01 0.01 0.01 0.02 0.02 0.02 0.01 0.02 0.02 0.02 0.01 0.01 0.00 0.00 0.00 0.00 0.00 0.00 0.00 0.00 0.00 0.00 0.00 0.00 0.00 0.00 0.00 0.00 0.00 0.00 0.00 0.00 0.00 0.00 0.00 0.00 0.00 0.00 0.00 0.00 0.00 0.00
0.01 0.01 0.02 0.02 0.01 0.01 0.02 0.02 0.03 0.02 0.01 0.00 0.00 0.00 0.00 0.00 0.00 0.00 0.00 0.00 0.00 0.00 0.00 0.00 0.00 0.00 0.00 0.00 0.00 0.00 0.00 0.00 0.00 0.00 0.00 0.00 0.00 0.00 0.00 0.00 0.00 0.00
0.02 0.01 0.02 0.04 0.02 0.02 0.02 0.03 0.03 0.00 0.00 0.00 0.00 0.00 0.00 0.00 0.00 0.00 0.00 0.00 0.00 0.00 0.00 0.00 0.00 0.00 0.00 0.00 0.00 0.00 0.00 0.00 0.00 0.00 0.00 0.00 0.00 0.00 0.00 0.00 0.00 0.00
0.02 0.03 0.08 0.13 0.15 0.03 0.03 0.03 0.01 0.00 0.00 0.00 0.00 0.00 0.00 0.00 0.00 0.00 0.00 0.00 0.00 0.00 0.00 0.00 0.00 0.00 0.00 0.00 0.00 0.00 0.00 0.00 0.00 0.00 0.00 0.00 0.00 0.00 0.00 0.00 0.00 0.00
0.09 0.11 0.16 0.27 0.11 0.03 0.02 0.02 0.00 0.00 0.00 0.00 0.00 0.00 0.00 0.00 0.00 0.00 0.00 0.00 0.00 0.00 0.00 0.00 0.00 0.00 0.00 0.00 0.00 0.00 0.00 0.00 0.00 0.00 0.00 0.00 0.00 0.00 0.00 0.00 0.00 0.00
MSLP
1014.57 1014.45 1014.37 1014.33 1014.29 1014.25 1014.33 1014.33 1014.09 1014.21 1014.33 1014.21 1014.33 1014.49 1014.85 1014.69 1014.69 1014.77 1014.41 1014.49 1014.41 1014.57 1014.81 1014.89 1014.89 1014.89 1014.89 1015.05 1015.09 1015.09 1015.25 1015.45 1015.41 1015.41 1015.45 1015.37 1015.13 1014.97 1014.93 1014.81 1014.61 1014.33
1014.73 1014.53 1014.37 1014.29 1014.33 1014.25 1014.21 1014.05 1014.13 1014.09 1014.25 1013.97 1013.85 1013.93 1013.97 1014.13 1014.13 1014.21 1014.45 1014.49 1014.49 1014.65 1014.85 1014.85 1014.81 1014.97 1015.01 1015.09 1015.25 1015.41 1015.49 1015.45 1015.49 1015.37 1015.53 1015.49 1015.29 1015.09 1014.97 1014.81 1014.61 1014.29
1014.77 1014.69 1014.57 1014.61 1014.53 1014.37 1014.21 1014.21 1014.09 1013.85 1013.69 1013.73 1013.85 1013.81 1014.01 1013.93 1014.21 1014.25 1014.29 1014.45 1014.53 1014.69 1014.81 1014.93 1015.05 1015.09 1015.13 1015.33 1015.37 1015.41 1015.73 1015.85 1015.81 1015.57 1015.69 1015.61 1015.33 1015.25 1015.09 1014.81 1014.49 1014.45
1014.81 1014.69 1014.69 1014.65 1014.49 1014.53 1014.33 1014.25 1014.21 1014.05 1013.97 1013.97 1013.81 1013.81 1013.89 1014.01 1014.21 1014.37 1014.53 1014.57 1014.61 1014.73 1014.85 1014.93 1015.05 1015.01 1015.17 1015.41 1015.45 1015.53 1015.77 1015.85 1015.93 1015.85 1015.85 1015.61 1015.37 1015.25 1015.33 1014.97 1014.85 1014.65
1014.93 1014.89 1014.73 1014.65 1014.61 1014.57 1014.41 1014.25 1014.21 1014.05 1014.17 1014.21 1014.01 1014.17 1014.29 1014.45 1014.49 1014.45 1014.61 1014.73 1014.81 1015.01 1015.13 1015.13 1015.13 1015.33 1015.41 1015.53 1015.53 1015.61 1015.61 1015.33 1015.89 1015.97 1016.01 1015.97 1015.57 1015.41 1015.33 1015.25 1015.17 1015.05
1014.85 1014.89 1014.81 1014.81 1014.77 1014.65 1014.37 1014.33 1014.29 1014.29 1014.29 1014.29 1014.25 1014.17 1014.41 1014.45 1014.53 1014.69 1014.85 1014.89 1014.81 1014.89 1015.01 1014.97 1015.21 1015.45 1015.65 1015.85 1015.85 1016.01 1015.85 1015.81 1016.05 1016.17 1016.21 1016.09 1015.85 1015.57 1015.37 1015.29 1015.29 1015.17
1014.77 1014.89 1014.89 1014.61 1014.65 1014.49 1014.45 1014.49 1014.41 1014.29 1014.29 1014.33 1014.41 1014.57 1014.65 1014.85 1015.05 1015.05 1015.01 1015.01 1015.01 1015.09 1015.21 1015.53 1015.73 1015.81 1015.77 1015.81 1016.05 1016.17 1016.09 1016.09 1016.21 1016.29 1016.41 1016.13 1016.09 1016.01 1015.61 1015.41 1015.49 1015.49
1014.97 1014.85 1014.81 1014.69 1014.65 1014.49 1014.41 1014.45 1014.53 1014.61 1014.49 1014.53 1014.89 1014.93 1014.81 1014.97 1015.01 1014.85 1014.97 1015.09 1015.17 1015.37 1015.53 1015.73 1015.97 1015.97 1015.61 1015.77 1016.17 1016.37 1016.21 1016.01 1016.21 1016.37 1016.53 1016.41 1016.37 1016.33 1016.01 1015.85 1015.73 1015.69
1015.09 1015.05 1014.97 1014.89 1014.69 1014.53 1014.53 1014.57 1014.73 1014.69 1014.65 1014.93 1015.01 1014.93 1014.81 1014.85 1014.97 1015.09 1015.25 1015.29 1015.53 1015.69 1015.77 1015.93 1015.93 1015.93 1016.09 1016.29 1016.45 1016.53 1016.57 1016.53 1016.53 1016.53 1016.57 1016.49 1016.53 1016.45 1016.25 1016.17 1016.13 1015.89
1015.29 1015.13 1015.13 1015.09 1015.09 1014.97 1015.05 1014.93 1014.93 1015.01 1014.89 1015.01 1014.97 1014.85 1014.93 1014.97 1015.09 1015.21 1015.45 1015.69 1015.81 1015.93 1016.05 1016.17 1016.29 1016.33 1016.37 1016.41 1016.57 1016.69 1016.73 1016.77 1016.69 1016.61 1016.53 1016.53 1016.53 1016.57 1016.41 1016.41 1016.33 1016.09
1015.57 1015.45 1015.45 1015.33 1015.21 1015.09 1015.29 1015.21 1015.13 1015.13 1015.09 1015.13 1015.13 1015.25 1015.29 1015.25 1015.37 1015.33 1015.53 1015.61 1015.85 1016.05 1016.17 1016.13 1016.33 1016.45 1016.57 1016.65 1016.65 1016.65 1016.77 1016.85 1016.81 1016.65 1016.53 1016.49 1016.41 1016.49 1016.37 1016.37 1016.33 1016.09
1015.69 1015.65 1015.69 1015.57 1015.37 1015.29 1015.41 1015.41 1015.37 1015.45 1015.41 1015.33 1015.25 1015.53 1015.45 1015.41 1015.61 1015.57 1015.57 1015.73 1015.81 1015.89 1015.89 1016.21 1016.37 1016.45 1016.65 1016.73 1016.81 1016.77 1016.73 1016.69 1016.65 1016.73 1016.57 1016.41 1016.37 1016.41 1016.25 1016.25 1016.25 1016.13
1015.85 1015.81 1015.73 1015.73 1015.73 1015.69 1015.61 1015.61 1015.65 1015.65 1015.69 1015.73 1015.57 1015.61 1015.57 1015.61 1015.57 1015.73 1015.65 1015.77 1015.89 1015.81 1016.01 1016.29 1016.37 1016.49 1016.81 1016.93 1016.93 1016.81 1016.85 1016.89 1016.81 1016.77 1016.69 1016.57 1016.41 1016.37 1016.13 1016.13 1016.17 1016.09
1015.77 1015.81 1015.85 1015.85 1015.81 1015.77 1015.73 1015.73 1015.77 1015.81 1015.81 1015.73 1015.69 1015.81 1015.77 1015.69 1015.61 1015.65 1015.73 1015.85 1016.05 1016.09 1016.21 1016.29 1016.61 1016.77 1016.85 1016.93 1016.89 1016.93 1016.85 1016.89 1016.81 1016.81 1016.77 1016.65 1016.53 1016.33 1016.17 1016.21 1016.21 1016.09
1015.81 1015.77 1015.73 1015.89 1015.89 1015.93 1015.97 1015.97 1016.01 1015.97 1015.93 1015.85 1015.85 1015.89 1015.85 1015.81 1015.69 1015.73 1015.89 1015.85 1015.85 1016.09 1016.29 1016.37 1016.45 1016.41 1016.45 1016.73 1016.81 1016.85 1016.89 1016.89 1016.85 1016.85 1016.81 1016.81 1016.65 1016.45 1016.33 1016.33 1016.25 1016.01
1015.77 1015.85 1015.93 1015.97 1016.09 1016.17 1016.21 1016.21 1016.21 1016.21 1016.21 1016.17 1016.13 1016.05 1016.01 1016.01 1016.05 1016.01 1016.09 1016.17 1016.33 1016.37 1016.33 1016.29 1016.29 1016.25 1017.01 1017.29 1017.29 1017.21 1017.13 1016.97 1016.97 1016.89 1016.85 1016.81 1016.77 1016.65 1016.49 1016.33 1016.21 1015.97
1015.85 1016.01 1016.05 1016.25 1016.25 1016.33 1016.37 1016.53 1016.53 1016.41 1016.41 1016.37 1016.29 1016.21 1016.25 1016.25 1016.29 1016.33 1016.29 1016.33 1016.37 1016.53 1016.65 1016.53 1016.41 1016.93 1017.45 1017.57 1017.61 1017.57 1017.37 1017.17 1017.09 1016.93 1016.77 1016.77 1016.65 1016.69 1016.65 1016.41 1016.05 1015.85
1016.01 1016.17 1016.29 1016.41 1016.45 1016.61 1016.65 1016.61 1016.65 1016.73 1016.73 1016.65 1016.53 1016.53 1016.33 1016.17 1016.37 1016.49 1016.45 1016.45 1016.45 1016.61 1016.69 1016.49 1016.97 1017.69 1017.73 1017.85 1017.85 1017.85 1017.73 1017.41 1017.05 1016.85 1016.85 1016.77 1016.65 1016.69 1016.45 1016.29 1016.21 1015.89
1016.13 1016.33 1016.49 1016.61 1016.69 1016.77 1016.85 1016.89 1016.97 1017.01 1016.97 1016.89 1016.89 1016.65 1016.41 1016.57 1016.61 1016.65 1016.65 1016.53 1016.61 1016.81 1016.69 1016.49 1017.33 1017.93 1017.97 1018.01 1018.01 1017.97 1017.85 1017.61 1017.05 1016.93 1017.01 1016.81 1016.73 1016.65 1016.49 1016.37 1016.21 1016.01
1016.29 1016.49 1016.65 1016.77 1016.85 1017.01 1017.05 1017.17 1017.33 1017.37 1017.17 1017.05 1016.89 1016.61 1016.69 1016.65 1016.61 1016.73 1016.85 1016.97 1016.93 1017.01 1017.05 1016.97 1017.65 1018.13 1018.17 1018.17 1018.17 1018.13 1017.97 1017.73 1017.09 1017.01 1016.93 1016.69 1016.69 1016.53 1016.41 1016.25 1016.13 1016.01
1016.41 1016.61 1016.81 1016.93 1017.05 1017.21 1017.33 1017.45 1017.49 1017.41 1017.29 1017.17 1017.01 1016.93 1016.93 1016.89 1016.85 1016.97 1017.05 1017.05 1017.13 1017.09 1017.05 1017.29 1018.09 1018.37 1018.37 1018.37 1018.29 1018.21 1018.01 1017.65 1016.97 1016.97 1016.81 1016.57 1016.41 1016.33 1016.29 1016.13 1015.97 1015.81
1016.45 1016.73 1016.89 1017.05 1017.33 1017.41 1017.57 1017.57 1017.53 1017.45 1017.45 1017.13 1017.05 1017.01 1016.89 1016.69 1016.81 1016.93 1017.21 1017.29 1017.25 1017.21 1017.25 1017.53 1018.25 1018.57 1018.53 1018.49 1018.41 1018.29 1018.09 1017.37 1016.89 1016.89 1016.69 1016.53 1016.37 1016.25 1016.09 1015.89 1015.73 1015.69
1016.37 1016.69 1017.01 1017.29 1017.41 1017.53 1017.57 1017.57 1017.57 1017.49 1017.29 1017.13 1017.29 1017.17 1017.09 1017.13 1017.33 1017.25 1017.29 1017.41 1017.49 1017.49 1017.61 1017.69 1018.09 1018.61 1018.61 1018.57 1018.49 1018.45 1018.13 1017.45 1017.09 1016.89 1016.81 1016.69 1016.45 1016.21 1016.01 1015.81 1015.65 1015.53
1016.33 1016.65 1017.09 1017.37 1017.45 1017.57 1017.57 1017.49 1017.37 1017.29 1017.37 1017.21 1017.37 1017.49 1017.61 1017.65 1017.49 1017.57 1017.65 1017.69 1017.85 1017.97 1017.93 1017.93 1017.93 1018.45 1018.57 1018.61 1018.53 1018.53 1018.37 1017.73 1017.17 1017.05 1016.89 1016.69 1016.45 1016.21 1015.93 1015.77 1015.49 1015.41
1016.21 1016.61 1017.17 1017.53 1017.69 1017.37 1017.33 1017.49 1017.45 1017.41 1017.37 1017.37 1017.49 1017.53 1017.73 1017.57 1017.49 1017.69 1017.93 1017.97 1018.17 1018.25 1018.33 1018.13 1017.81 1018.21 1018.45 1018.49 1018.57 1018.61 1018.45 1017.89 1017.41 1017.01 1017.01 1016.81 1016.61 1016.29 1015.93 1015.61 1015.25 1015.05
1016.37 1016.69 1016.93 1017.17 1017.01 1016.93 1017.17 1017.25 1017.25 1017.33 1017.45 1017.61 1017.65 1017.45 1017.57 1017.77 1017.85 1017.89 1018.37 1018.33 1018.41 1018.37 1018.29 1018.21 1018.21 1018.09 1018.17 1018.45 1018.57 1018.61 1018.53 1018.17 1017.53 1017.25 1017.25 1017.05 1016.69 1016.45 1016.09 1015.49 1015.17 1014.97
Thickness
5779 5780 5780 5780 5779 5778 5777 5775 5775 5773 5771 5771 5770 5768 5766 5765 5764 5763 5762 5762 5761 5759 5757 5755 5755 5753 5752 5751 5749 5748 5746 5744 5743 5743 5742 5740 5741 5742 5741 5741 5743 5743
5778 5779 5779 5778 5777 5777 5776 5776 5775 5774 5773 5773 5773 5771 5769 5767 5766 5765 5763 5762 5761 5758 5756 5754 5753 5752 5751 5748 5746 5745 5743 5741 5741 5740 5739 5737 5738 5739 5738 5738 5740 5740
5776 5777 5777 5775 5775 5775 5775 5774 5774 5775 5774 5774 5773 5772 5770 5768 5766 5764 5762 5761 5759 5757 5755 5753 5751 5750 5749 5746 5744 5742 5739 5737 5737 5737 5736 5735 5736 5736 5735 5736 5737 5737
5775 5775 5774 5774 5774 5773 5773 5773 5773 5774 5773 5772 5772 5771 5769 5766 5764 5762 5760 5758 5756 5754 5753 5751 5750 5749 5747 5744 5743 5741 5739 5737 5735 5734 5733 5732 5733 5732 5731 5732 5731 5732
5773 5772 5772 5771 5771 5771 5772 5772 5771 5772 5770 5769 5769 5768 5765 5763 5761 5760 5758 5756 5755 5753 5752 5750 5748 5747 5744 5742 5741 5739 5738 5737 5734 5731 5729 5728 5729 5729 5728 5728 5727 5726
5772 5771 5771 5770 5770 5769 5771 5770 5769 5769 5768 5767 5767 5765 5764 5762 5759 5757 5755 5755 5754 5752 5750 5749 5746 5744 5741 5739 5737 5735 5735 5734 5730 5727 5725 5725 5725 5725 5725 5724 5722 5721
5773 5771 5771 5771 5770 5770 5770 5769 5768 5768 5767 5766 5764 5762 5760 5759 5756 5755 5754 5753 5751 5749 5747 5745 5741 5740 5739 5737 5734 5731 5730 5729 5726 5723 5721 5721 5720 5719 5720 5720 5717 5716
5772 5771 5771 5770 5770 5770 5769 5768 5766 5766 5765 5763 5761 5759 5758 5756 5755 5754 5752 5750 5748 5746 5744 5741 5738 5737 5737 5735 5731 5727 5727 5726 5723 5720 5717 5717 5715 5714 5714 5714 5712 5711
5770 5770 5770 5769 5768 5768 5767 5766 5764 5764 5763 5761 5759 5758 5758 5755 5754 5752 5750 5747 5745 5742 5740 5738 5736 5734 5733 5729 5726 5724 5722 5721 5719 5717 5715 5714 5712 5710 5710 5708 5706 5706
5768 5768 5767 5766 5766 5765 5764 5764 5763 5762 5761 5759 5758 5757 5756 5754 5752 5750 5747 5744 5742 5739 5737 5735 5732 5730 5728 5725 5723 5721 5719 5716 5715 5714 5713 5711 5708 5707 5705 5703 5701 5701
5766 5765 5764 5764 5764 5763 5762 5761 5761 5760 5759 5758 5757 5755 5753 5752 5750 5748 5746 5743 5740 5738 5736 5733 5730 5728 5725 5722 5720 5718 5716 5713 5712 5711 5709 5708 5706 5704 5702 5700 5698 5697
5764 5763 5761 5761 5761 5761 5760 5758 5757 5757 5756 5755 5754 5752 5752 5750 5748 5747 5745 5743 5740 5738 5735 5731 5728 5725 5722 5719 5717 5715 5713 5711 5710 5707 5706 5705 5703 5701 5700 5698 5695 5693
5762 5761 5760 5759 5758 5757 5757 5756 5755 5754 5753 5753 5752 5751 5750 5749 5747 5745 5743 5741 5738 5736 5733 5729 5726 5723 5719 5716 5714 5713 5710 5708 5706 5704 5703 5702 5700 5699 5697 5695 5692 5690
5762 5761 5760 5758 5757 5756 5755 5754 5753 5751 5751 5751 5751 5749 5748 5747 5746 5744 5742 5739 5737 5734 5731 5727 5723 5720 5717 5714 5712 5710 5707 5705 5703 5701 5699 5697 5696 5695 5694 5691 5689 5687
5763 5762 5760 5758 5756 5755 5753 5752 5751 5750 5750 5749 5748 5747 5746 5744 5743 5741 5738 5737 5734 5731 5728 5724 5722 5720 5716 5711 5709 5707 5704 5702 5700 5698 5695 5693 5692 5691 5690 5687 5685 5684
5763 5761 5759 5757 5754 5752 5751 5749 5748 5747 5747 5746 5745 5744 5743 5741 5740 5738 5735 5733 5730 5727 5725 5722 5721 5718 5711 5706 5704 5702 5700 5698 5696 5694 5692 5691 5689 5687 5685 5684 5683 5682
5761 5759 5757 5754 5752 5750 5748 5746 5745 5744 5743 5742 5741 5740 5739 5738 5735 5733 5731 5730 5727 5724 5721 5719 5717 5712 5705 5701 5699 5696 5695 5694 5694 5692 5691 5689 5687 5684 5682 5682 5681 5680
5758 5756 5754 5751 5749 5746 5744 5743 5742 5740 5739 5738 5737 5736 5736 5735 5732 5729 5727 5726 5724 5720 5718 5717 5711 5704 5700 5698 5695 5693 5691 5691 5692 5691 5688 5687 5684 5682 5680 5679 5677 5676
5756 5753 5750 5748 5746 5743 5741 5739 5737 5735 5734 5733 5733 5733 5733 5731 5728 5726 5724 5722 5719 5716 5714 5713 5706 5699 5697 5694 5691 5690 5688 5688 5690 5688 5685 5684 5682 5679 5678 5676 5674 5672
5753 5750 5747 5744 5742 5739 5737 5735 5732 5731 5731 5730 5730 5730 5729 5727 5725 5722 5719 5717 5715 5712 5711 5708 5701 5696 5694 5691 5689 5687 5686 5686 5688 5686 5684 5683 5680 5678 5675 5673 5671 5670
5750 5747 5744 5741 5739 5736 5733 5731 5729 5728 5728 5727 5728 5726 5725 5724 5722 5719 5716 5714 5712 5710 5708 5704 5697 5692 5691 5688 5686 5685 5683 5685 5686 5685 5682 5681 5679 5676 5673 5672 5670 5668
5748 5744 5741 5738 5735 5733 5730 5729 5727 5726 5725 5725 5725 5723 5723 5722 5719 5716 5713 5711 5709 5706 5705 5701 5694 5689 5688 5686 5684 5682 5682 5684 5685 5683 5680 5678 5676 5674 5672 5670 5669 5665
5747 5743 5739 5736 5733 5731 5729 5727 5726 5725 5723 5723 5721 5719 5719 5717 5714 5712 5710 5707 5706 5703 5701 5699 5693 5688 5685 5683 5682 5679 5679 5682 5682 5680 5677 5675 5673 5672 5670 5669 5666 5663
5748 5743 5738 5733 5731 5730 5728 5726 5725 5723 5722 5721 5718 5715 5714 5712 5710 5709 5706 5704 5701 5698 5696 5695 5692 5687 5683 5681 5680 5677 5676 5678 5679 5677 5674 5672 5671 5670 5667 5666 5664 5661
5747 5742 5736 5732 5730 5730 5728 5726 5724 5723 5720 5718 5716 5713 5711 5709 5708 5705 5702 5700 5697 5694 5693 5692 5691 5688 5683 5680 5678 5675 5673 5674 5675 5674 5672 5669 5667 5666 5664 5664 5662 5659
5744 5740 5735 5733 5732 5731 5729 5727 5725 5722 5719 5715 5713 5711 5709 5707 5704 5701 5698 5695 5694 5691 5690 5689 5688 5686 5683 5679 5676 5673 5671 5671 5671 5671 5668 5665 5664 5662 5661 5661 5659 5656